Location: Nians�bougou
(13.2321°N, 4.9818°W)
Time: 07:23:04
(UTC+00:00)

NOSS 3-1 (C) - Pass Details

Date: 18 February 2020
Orbit: 759 x 1449 km, 63.4° (Epoch: 26 March)

Event Time Altitude Azimuth Distance (km) Brightness Sun altitude
Exits shadow 05:41:32 - 330° (NNW) 4,332 6.5 -15.2°
Rises 05:41:34 0° 330° (NNW) 4,319 6.5 -15.2°
Reaches altitude 10° 05:44:21 10° 327° (NNW) 3,414 5.9 -14.6°
Maximum altitude 05:52:48 65° 248° (WSW) 1,559 4.3 -12.5°
Drops below altitude 10° 06:01:36 10° 168° (SSE) 3,541 6.7 -10.4°
Sets 06:04:33 0° 165° (SSE) 4,487 7.3 -9.7°
